Location: Chiroubles
(46.1812°N, 4.6660°E)
Time: 11:07:12
(UTC+00:00)

N. Korean satellite - Pass Details

Date: 28 October 2020
Orbit: 453 x 503 km, 97.2° (Epoch: 03 December)

Event Time Altitude Azimuth Distance (km) Brightness Sun altitude
Rises 04:56:58 0° 18° (NNE) 2,482 10.3 -14.4°
Reaches altitude 10° 04:59:05 10° 24° (NNE) 1,601 9.4 -14.0°
Maximum altitude 05:02:23 45° 99° (E) 630 7.7 -13.4°
Drops below altitude 10° 05:05:39 10° 173° (S) 1,586 9.3 -12.9°
Sets 05:07:44 0° 180° (S) 2,456 10.2 -12.5°
